TimeEST,TemperatureF,Dew PointF,Humidity,Sea Level PressureIn,VisibilityMPH,Wind Direction,Wind SpeedMPH,Gust SpeedMPH,PrecipitationIn,Events,Conditions,WindDirDegrees,DateUTC
12:52 AM,44.1,28.0,53,30.16,10.0,NNW,3.5,-,N/A,,Clear,330,2012-11-09 05:52:00
1:52 AM,30.9,26.1,82,30.17,10.0,North,6.9,-,N/A,,Clear,350,2012-11-09 06:52:00
2:52 AM,37.9,28.0,68,30.17,10.0,NW,6.9,-,N/A,,Clear,310,2012-11-09 07:52:00
3:52 AM,30.9,27.0,85,30.19,10.0,NNW,3.5,-,N/A,,Clear,330,2012-11-09 08:52:00
4:52 AM,34.0,28.0,79,30.20,10.0,North,5.8,-,N/A,,Clear,360,2012-11-09 09:52:00
5:52 AM,32.0,27.0,82,30.21,10.0,NE,4.6,-,N/A,,Clear,40,2012-11-09 10:52:00
6:52 AM,28.9,27.0,92,30.23,8.0,NW,3.5,-,N/A,,Clear,320,2012-11-09 11:52:00
7:52 AM,39.0,33.1,79,30.26,8.0,NW,3.5,-,N/A,,Clear,320,2012-11-09 12:52:00
8:52 AM,48.9,35.1,59,30.27,10.0,Calm,Calm,-,N/A,,Clear,0,2012-11-09 13:52:00
9:52 AM,55.0,33.1,43,30.28,10.0,Calm,Calm,-,N/A,,Clear,0,2012-11-09 14:52:00
10:52 AM,59.0,32.0,36,30.28,10.0,Variable,3.5,-,N/A,,Clear,0,2012-11-09 15:52:00
11:52 AM,63.0,28.9,28,30.26,10.0,SW,5.8,-,N/A,,Partly Cloudy,230,2012-11-09 16:52:00
12:52 PM,64.0,28.9,27,30.23,10.0,Variable,3.5,-,N/A,,Clear,0,2012-11-09 17:52:00
1:52 PM,64.9,28.9,26,30.22,10.0,Calm,Calm,-,N/A,,Clear,0,2012-11-09 18:52:00
2:52 PM,66.9,28.9,24,30.20,10.0,ENE,3.5,-,N/A,,Clear,60,2012-11-09 19:52:00
3:52 PM,66.0,28.0,24,30.20,10.0,SE,4.6,-,N/A,,Clear,140,2012-11-09 20:52:00
4:52 PM,63.0,28.9,28,30.20,10.0,South,3.5,-,N/A,,Partly Cloudy,180,2012-11-09 21:52:00
5:52 PM,59.0,28.9,32,30.22,10.0,Calm,Calm,-,N/A,,Scattered Clouds,0,2012-11-09 22:52:00
6:52 PM,55.9,30.0,37,30.23,10.0,South,3.5,-,N/A,,Scattered Clouds,170,2012-11-09 23:52:00
7:52 PM,55.0,30.0,38,30.24,10.0,Calm,Calm,-,N/A,,Scattered Clouds,0,2012-11-10 00:52:00
8:52 PM,54.0,30.9,41,30.24,10.0,Calm,Calm,-,N/A,,Clear,0,2012-11-10 01:52:00
9:52 PM,50.0,30.9,48,30.25,10.0,Calm,Calm,-,N/A,,Clear,0,2012-11-10 02:52:00
10:52 PM,46.9,30.9,54,30.26,10.0,Calm,Calm,-,N/A,,Clear,0,2012-11-10 03:52:00
11:52 PM,45.0,32.0,60,30.26,10.0,Calm,Calm,-,N/A,,Clear,0,2012-11-10 04:52:00